Temp
18 18 19 18 18 18 19 19 19 19 19 19 19 19 19 19 18 18 18 18 18 18 19 19 18 18 18 18 18 18 18 18 18 19 19 19 19 19 19 20 20 20 20 20 20 19 19 19 19 19 19 19 19 19 19 20 20 21 21 21 21 21 21 21 21 20 19 19 19 19 18 18 18 18 17 16 15 15 15 14 14 13 13 13 13
18 17 18 18 18 18 18 19 19 19 19 19 19 19 19 19 18 18 18 18 18 18 19 19 19 19 19 19 19 18 18 18 18 19 19 19 19 19 19 20 20 20 20 20 20 19 19 19 19 19 19 19 19 19 20 20 21 21 21 21 21 21 21 21 20 20 19 19 19 19 18 18 19 18 17 16 15 16 15 14 14 14 14 13 13
17 17 17 17 17 17 17 18 19 19 19 19 19 19 19 18 18 18 18 18 18 19 19 19 19 19 19 19 19 19 19 18 18 19 19 19 19 19 19 20 20 20 20 20 20 19 19 19 19 19 19 19 19 20 20 20 21 21 21 21 21 21 21 21 20 20 19 19 19 19 18 18 19 18 17 16 16 16 16 15 14 15 15 14 14
17 16 17 17 16 16 16 17 18 19 19 19 19 19 19 19 18 19 19 19 19 19 19 19 19 19 19 19 19 19 19 19 19 19 19 19 19 19 19 19 19 20 20 20 20 20 19 19 19 19 19 19 19 20 20 20 21 21 20 20 20 20 20 20 20 20 20 19 19 19 19 18 19 19 18 17 16 16 16 16 15 16 16 16 15
16 16 16 16 15 15 16 16 17 18 19 19 19 19 19 19 19 19 19 19 19 19 19 19 19 19 19 19 19 19 19 19 19 19 19 19 19 19 19 19 19 20 20 20 20 20 19 19 19 19 19 19 19 20 20 20 20 20 20 20 20 19 19 19 20 20 20 20 19 20 19 18 18 19 18 17 17 17 17 17 16 17 17 17 16
15 15 15 15 15 15 16 17 17 18 19 19 18 18 19 19 19 19 19 19 19 19 19 19 19 19 19 19 19 19 19 19 19 19 19 19 19 19 19 19 19 19 19 20 20 20 20 20 19 19 19 19 19 19 19 19 20 20 20 20 20 20 19 19 19 20 20 20 19 19 19 19 19 19 19 18 17 17 18 17 17 17 17 17 16
14 14 15 16 16 16 17 17 17 17 18 18 18 18 18 18 19 19 19 19 19 19 19 19 19 19 19 19 20 19 19 19 19 19 19 19 19 19 19 19 19 19 19 19 19 19 19 19 19 19 19 19 19 19 19 19 19 20 20 20 20 20 19 19 19 19 20 20 20 20 19 19 19 19 19 19 18 18 18 18 18 18 17 17 16
14 14 15 16 16 16 16 16 17 17 17 17 18 18 18 18 19 19 19 19 18 19 19 18 18 19 19 19 19 19 19 19 19 19 19 19 19 19 19 19 19 19 19 19 19 19 19 19 19 19 19 19 19 19 19 19 19 19 19 19 19 19 19 19 19 20 20 20 20 20 20 19 19 19 19 19 19 18 18 18 18 18 17 17 16
14 14 14 15 15 15 15 16 16 16 16 17 17 18 18 18 18 19 19 18 18 19 19 18 19 19 19 19 19 19 19 19 19 19 19 19 19 19 19 19 19 19 19 19 19 19 19 19 18 18 18 18 18 18 18 18 18 18 18 18 18 19 19 19 19 19 19 19 20 20 20 19 19 19 19 19 19 19 18 18 18 18 18 17 16
14 14 15 15 15 14 14 15 15 15 15 16 16 16 17 17 18 18 18 18 18 18 18 18 18 18 18 18 18 18 18 18 18 19 19 19 19 19 19 19 19 19 19 19 18 18 19 18 18 17 17 18 17 17 17 17 17 17 17 17 17 17 18 18 18 18 18 19 19 18 19 19 19 19 19 18 18 19 18 18 18 18 18 17 17
14 14 14 14 14 14 14 14 14 14 14 14 15 15 15 16 16 17 17 17 17 18 18 18 18 18 18 17 17 17 17 17 18 18 18 18 18 18 18 19 19 19 19 18 18 18 18 18 18 17 17 17 17 17 17 16 17 17 16 17 17 17 16 17 17 18 18 18 18 17 18 19 19 19 18 18 18 18 18 18 18 18 18 17 17
13 13 14 14 14 14 14 14 14 14 14 14 14 14 15 15 15 15 15 16 16 17 17 17 17 17 17 17 17 17 16 16 17 17 17 18 18 18 18 19 19 18 19 19 19 18 18 18 18 17 17 17 17 16 16 16 16 16 16 16 16 16 16 16 16 17 17 18 17 17 17 18 18 19 19 18 18 18 17 18 18 18 17 17 17
12 13 13 13 13 13 13 13 13 13 13 13 13 14 14 15 15 15 15 15 16 16 16 16 16 16 16 16 16 16 16 16 16 17 17 17 17 17 17 18 19 18 19 19 18 18 18 18 17 17 17 17 16 16 16 16 16 16 16 16 16 16 16 16 16 16 16 16 16 17 18 18 18 19 19 18 18 18 17 18 18 17 17 16 16
11 12 13 13 13 13 13 13 13 12 12 12 12 13 13 14 14 14 14 15 15 15 15 15 16 16 16 16 15 15 15 16 16 16 16 16 17 17 17 17 18 18 18 18 18 18 18 18 17 17 17 16 16 16 16 16 16 16 16 16 16 16 16 15 16 16 16 15 15 16 17 17 18 18 18 18 18 18 17 17 16 16 16 16 16
10 11 11 12 13 13 13 13 13 13 13 13 13 12 13 13 13 13 14 14 15 15 15 15 15 15 15 15 15 14 15 15 15 16 16 16 16 16 16 16 16 17 17 17 16 17 17 17 17 17 17 16 16 16 16 16 16 16 16 16 15 15 15 15 15 15 15 15 15 15 16 16 17 17 17 17 17 17 17 16 16 16 16 15 14
10 10 10 11 11 12 13 13 13 13 13 13 13 13 13 13 13 13 13 14 14 15 14 14 14 14 14 14 14 14 14 14 15 15 16 16 16 16 16 16 16 16 16 16 15 16 16 17 17 17 17 16 15 16 16 16 15 16 16 16 15 15 15 15 15 15 15 15 15 15 15 15 16 16 16 16 16 16 16 15 15 15 14 14 13
10 10 10 10 10 11 12 12 12 13 12 12 12 13 13 13 13 13 14 14 14 14 14 14 14 14 14 13 13 13 14 14 14 15 15 15 15 15 15 15 15 16 16 15 15 16 17 16 16 17 16 15 15 15 15 15 15 15 15 15 15 15 15 15 15 15 14 14 14 14 14 15 15 15 15 15 15 15 15 14 14 14 13 13 13
10 10 10 10 10 10 11 11 12 12 12 12 12 12 12 12 13 13 14 14 14 14 14 14 13 13 13 13 13 13 13 13 13 14 14 14 14 15 15 15 15 15 15 16 16 16 16 15 15 15 15 14 14 15 15 14 14 14 14 15 15 15 15 15 14 14 14 14 14 14 14 14 14 14 14 14 14 14 13 13 14 13 13 13 14
10 10 10 10 10 10 10 11 11 12 12 12 12 12 12 12 12 13 13 13 13 13 13 13 12 12 12 12 12 12 12 13 13 13 13 14 14 14 14 14 15 15 15 16 15 15 15 14 14 14 14 13 14 14 14 14 14 13 14 14 14 14 14 14 14 14 13 13 13 13 13 13 13 13 13 13 13 13 12 13 13 13 13 13 13
10 10 10 10 10 10 10 10 11 11 11 11 11 11 12 12 12 13 13 13 13 13 12 12 12 12 12 11 11 11 11 12 12 12 13 13 13 13 13 14 14 14 14 14 14 14 14 13 13 14 13 13 13 13 13 13 13 13 13 13 13 13 13 13 13 13 12 12 12 12 12 12 12 12 12 12 12 12 12 12 13 13 13 13 14
9 9 9 10 9 9 9 10 10 11 11 11 10 11 11 11 12 12 12 12 12 12 11 11 11 11 11 11 11 10 11 11 11 11 12 12 12 13 13 13 13 13 13 13 14 14 13 13 13 13 13 13 13 13 13 13 13 13 13 13 12 12 12 12 13 13 12 12 12 12 12 12 11 11 11 11 11 11 11 11 11 12 12 12 13
9 8 9 9 9 9 9 9 9 10 11 11 11 11 11 11 11 11 11 11 11 11 10 10 10 10 10 10 10 10 10 10 10 11 11 11 11 11 12 12 12 12 12 13 13 14 13 12 12 12 13 13 13 13 13 13 13 13 13 13 13 13 12 12 12 12 12 13 13 12 12 12 12 12 12 12 12 11 10 10 10 10 11 11 11
9 8 8 8 8 8 8 8 9 9 10 11 11 11 11 11 11 12 12 12 12 12 11 11 11 11 10 10 10 10 10 10 10 10 10 10 10 10 11 11 11 11 12 12 13 14 13 12 11 12 12 12 12 12 13 13 13 13 13 12 12 12 12 12 12 12 12 13 13 13 13 13 13 13 13 12 11 10 9 9 9 9 10 10 10
9 8 8 8 8 8 8 8 8 8 9 10 10 10 11 11 12 12 13 13 13 13 13 13 13 12 12 11 10 10 10 9 9 9 9 9 9 9 10 10 10 11 11 11 12 12 11 11 11 11 11 12 12 12 12 12 12 12 12 12 12 11 11 11 11 12 12 12 12 12 13 13 13 13 13 11 9 8 8 8 8 8 9 9 9
9 9 9 9 8 8 8 8 8 8 9 9 9 9 10 10 11 11 12 12 13 13 13 13 13 13 13 12 11 10 10 9 9 8 8 8 8 8 9 9 9 10 10 10 10 10 10 10 10 11 11 11 11 12 11 12 12 12 12 12 11 11 10 11 11 12 12 11 11 11 11 11 11 11 10 9 8 7 7 8 8 8 8 8 8
9 9 9 9 9 9 9 9 9 9 9 9 9 9 9 9 10 10 11 11 11 12 12 12 12 12 12 12 11 11 11 10 9 8 7 7 8 8 8 8 8 9 9 9 9 9 9 10 10 10 10 10 10 10 10 10 11 11 11 11 10 10 10 11 11 11 11 11 10 11 11 10 10 9 8 8 8 7 7 7 7 7 7 7 7
8 9 9 9 9 9 9 9 9 9 9 9 9 9 9 9 9 8 9 10 10 11 11 11 11 11 11 11 11 11 11 10 8 7 6 7 7 7 7 7 7 7 8 8 8 8 8 9 9 10 10 10 10 10 9 9 9 9 9 10 9 8 9 9 9 10 10 10 10 10 10 9 9 9 8 8 7 6 6 7 7 7 7 7 7
8 9 9 9 9 9 9 9 9 9 8 8 8 8 8 8 7 6 6 6 8 9 9 10 9 10 11 11 10 11 11 9 6 5 5 6 6 6 6 6 6 7 7 7 7 8 8 8 9 9 9 9 9 9 8 8 8 8 8 8 8 8 8 8 8 9 9 9 9 9 8 8 8 8 7 7 6 6 6 6 6 6 6 5 5
8 9 9 9 9 9 9 9 9 9 8 7 6 6 6 7 6 5 5 5 6 6 7 7 6 7 8 9 8 9 9 7 5 5 5 5 5 6 6 6 6 7 7 7 7 8 8 8 8 8 8 8 8 8 8 8 8 8 7 7 8 8 8 8 8 8 8 8 8 8 7 7 7 6 6 6 5 5 5 5 5 5 5 5 5
9 9 9 9 9 10 10 10 10 9 9 8 7 6 5 6 6 5 4 4 5 5 5 5 5 5 6 6 5 5 5 5 5 5 5 5 5 6 6 6 6 7 7 7 8 8 8 9 10 10 10 10 10 10 10 9 9 9 9 8 8 8 8 8 8 8 7 7 8 7 6 6 6 5 5 5 4 4 4 4 4 4 5 5 5
9 9 9 9 9 9 10 10 10 10 10 9 8 7 5 5 5 5 4 4 4 4 4 4 4 4 5 4 4 4 4 4 4 5 5 5 6 6 6 6 6 7 7 8 8 8 9 10 11 11 11 11 12 11 11 11 11 11 10 10 9 9 8 8 8 7 7 7 7 6 6 5 5 5 4 4 3 3 3 3 3 3 4 4 4
9 9 9 9 9 9 9 9 9 9 9 9 9 9 8 6 5 5 4 4 5 4 4 4 4 4 4 4 3 3 4 4 4 4 5 5 6 6 6 7 7 7 7 8 8 9 10 11 11 11 12 12 12 11 11 10 10 10 10 10 10 9 8 8 7 7 6 6 6 5 5 5 4 4 4 3 3 3 3 3 3 3 3 3 4
9 9 9 9 9 9 9 9 9 9 9 9 9 9 9 8 7 6 5 5 5 5 5 5 4 4 4 3 3 3 4 4 4 5 5 5 6 6 7 7 7 8 8 8 9 10 11 11 11 11 11 11 11 11 10 9 9 10 10 9 9 9 8 8 7 7 6 5 5 4 4 4 4 3 3 3 3 2 2 2 2 2 2 3 3
7 7 7 8 9 9 9 9 9 8 8 8 8 8 7 8 8 8 7 6 6 5 5 4 4 4 4 4 3 3 4 4 4 5 5 6 6 7 7 8 8 8 8 9 9 10 10 10 9 10 10 10 9 9 9 8 8 8 9 9 9 9 8 7 7 6 5 5 4 4 4 3 3 3 2 2 2 2 2 2 2 2 2 2 3
7 7 7 8 8 8 8 8 8 7 7 7 7 7 7 7 7 7 7 7 7 7 6 5 5 5 5 4 4 4 4 4 4 5 5 6 6 7 7 9 9 9 9 9 9 9 8 8 8 8 8 8 8 8 7 7 7 7 7 7 7 8 7 7 6 5 4 4 4 4 3 3 3 3 2 2 1 1 1 2 2 2 2 3 3
9 8 8 8 8 7 7 6 6 6 6 7 7 7 7 7 7 7 7 6 7 8 8 7 6 6 5 4 4 4 4 4 5 5 5 6 6 7 8 9 9 9 9 8 8 7 7 6 6 6 6 6 6 6 6 6 6 6 6 6 6 6 6 6 5 4 3 3 3 3 3 3 2 2 1 1 1 1 1 2 2 3 3 4 4
8 8 8 8 7 7 6 5 5 5 5 6 7 7 7 7 7 7 6 6 6 7 7 7 7 7 6 4 4 4 5 5 5 5 5 6 6 7 7 8 8 8 8 7 6 6 5 5 5 4 5 4 4 4 4 4 4 4 4 4 4 5 5 5 4 3 3 3 2 3 3 2 1 1 1 1 1 1 2 2 3 3 4 4 4
6 6 7 7 7 7 6 6 5 5 6 6 7 6 6 6 6 7 6 6 6 6 7 6 6 6 5 4 4 4 5 6 6 6 6 6 6 6 6 6 6 6 6 6 5 5 5 4 4 4 4 4 4 4 3 3 3 3 3 3 3 3 4 4 3 3 2 2 2 2 2 1 1 1 1 1 1 2 2 3 4 4 4 4 4
5 5 5 5 6 6 6 6 6 6 6 6 6 6 6 6 6 6 6 6 6 6 6 6 6 4 4 3 3 4 5 6 6 5 5 5 4 4 4 4 4 4 4 4 4 4 4 3 3 3 3 3 3 3 3 3 3 3 3 3 3 3 2 2 2 2 2 2 1 1 1 1 1 2 2 2 2 3 4 4 4 4 5 4 5
6 5 5 5 6 6 6 6 6 6 6 6 6 6 6 6 6 6 6 6 6 6 6 6 5 4 3 3 3 2 4 5 5 4 4 4 3 3 4 3 3 3 2 2 3 3 3 3 2 2 1 1 1 2 2 3 3 3 2 2 2 2 1 1 1 1 1 1 1 1 1 1 2 2 2 3 4 4 4 4 4 4 5 5 5
6 6 6 6 6 6 6 6 6 6 5 6 6 6 6 5 5 5 5 5 5 5 5 5 5 4 3 3 3 3 4 5 5 4 4 4 4 4 4 3 3 2 2 2 2 3 3 2 2 1 1 0 0 1 1 2 2 2 2 2 2 1 1 1 1 1 1 1 1 1 2 2 2 2 3 3 4 4 4 4 4 5 5 5 5
6 6 6 6 6 6 6 7 7 6 5 5 5 6 6 6 5 5 5 5 5 5 5 4 4 4 3 4 4 4 5 5 5 4 5 5 4 4 3 3 3 3 2 2 2 3 2 2 1 1 0 -0 -0 -0 0 1 1 1 1 1 1 1 1 1 1 1 1 1 1 2 2 2 2 3 3 3 3 4 4 4 5 5 5 5 5
6 6 6 6 6 6 6 6 6 6 5 5 5 5 6 6 6 5 5 4 4 5 4 4 4 4 4 4 5 5 5 5 5 5 4 4 4 3 3 3 3 3 2 2 2 2 2 2 1 1 0 -0 -0 -1 -1 -1 -0 -0 -0 -0 -0 0 0 0 0 0 0 1 1 1 1 2 2 2 2 2 3 3 4 4 4 4 5 5 5
5 6 6 6 6 6 5 6 6 5 4 4 4 5 5 6 6 6 5 5 4 4 4 4 3 4 4 5 5 5 5 4 4 4 4 3 3 3 3 3 2 2 2 1 1 1 1 1 1 0 0 0 0 -0 -1 -1 -1 -1 -1 -1 -1 -1 -0 -0 -0 -0 -0 0 1 1 1 1 2 2 2 2 2 2 3 4 4 4 4 5 5
5 6 6 6 6 6 5 5 5 5 4 4 5 6 6 6 5 5 5 4 4 4 4 3 3 3 4 5 5 5 5 4 4 4 4 3 3 3 3 2 2 2 1 2 2 2 1 1 1 0 -0 -0 0 0 0 -0 -1 -1 -1 -1 -1 -1 -1 -1 -0 -0 0 0 0 1 1 1 1 1 1 2 3 3 3 4 4 4 4 4 4
5 5 6 6 6 6 5 5 5 5 5 5 6 6 6 6 6 5 4 4 4 4 4 4 3 3 3 4 5 5 5 5 4 4 3 3 3 3 2 2 2 1 1 1 2 2 2 2 2 1 1 0 0 1 0 -0 -1 -1 -0 -0 -0 -0 -0 -0 -0 -0 0 1 1 1 1 1 1 1 2 2 3 3 3 3 3 4 4 4 4
5 5 5 6 6 6 6 5 5 5 5 5 6 6 6 6 6 5 4 3 4 4 4 4 4 3 3 3 4 4 5 5 5 4 3 3 3 2 2 2 1 1 1 1 1 1 1 2 2 1 1 1 1 1 0 0 0 0 0 1 1 0 0 0 0 0 0 0 1 1 1 2 2 3 3 2 3 3 3 3 3 3 3 3 3
5 5 5 5 6 6 6 5 5 5 5 5 5 5 5 5 6 6 5 4 4 4 4 4 4 4 3 3 3 4 4 4 4 4 4 3 3 2 1 1 1 1 1 1 1 1 1 1 1 1 1 1 1 1 1 0 0 0 0 0 1 1 1 1 1 1 1 0 0 1 1 2 2 2 2 2 2 2 3 3 3 3 3 3 3
5 5 5 5 6 6 6 5 5 5 5 5 5 5 5 5 6 6 6 5 5 5 5 4 4 4 4 4 4 4 4 4 4 4 4 3 3 2 1 1 1 1 0 0 0 0 0 0 0 0 0 0 0 0 0 0 0 0 0 0 0 0 0 0 1 1 1 0 0 0 1 1 1 1 2 2 1 1 2 2 2 2 3 3 3
5 5 5 5 6 6 6 6 5 5 5 5 5 6 6 6 6 6 6 6 6 5 5 4 4 4 4 4 4 5 5 5 4 4 4 4 3 2 1 1 1 0 -0 -0 -0 -0 -0 -0 -0 -0 -0 -1 -1 -1 -0 -0 -0 -0 -0 -0 -0 -0 -0 0 0 0 0 0 -0 -0 0 0 0 1 1 1 1 1 1 2 2 2 2 3 2
5 5 5 5 6 6 6 6 6 6 5 5 6 6 7 6 6 6 6 6 6 6 6 5 4 4 4 4 4 4 4 5 5 5 5 4 3 2 1 1 0 0 0 -0 -0 -0 -1 -1 -1 -1 -1 -1 -1 -1 -1 -1 -1 -1 -1 -1 -1 -1 -1 -1 -0 -0 -0 -1 -1 -1 -1 -1 -0 -0 0 1 1 1 1 1 1 1 1 2 2
Height
777 779 780 782 784 787 789 790 793 795 798 801 803 805 807 809 812 813 814 815 817 819 820 822 824 826 827 829 830 831 832 833 834 834 835 836 836 836 837 837 837 837 838 838 838 839 839 839 840 840 841 842 843 845 845 846 845 845 846 847 848 848 848 849 852 856 858 859 860 862 864 866 867 868 870 871 873 874 875 876 876 878 879 880 880
780 780 782 783 784 787 789 790 793 796 798 801 803 806 809 811 813 814 815 816 817 819 821 822 824 826 827 829 830 831 832 833 834 835 836 836 837 837 837 837 837 837 838 838 838 839 840 840 840 841 842 843 844 845 846 846 846 846 847 847 848 849 848 849 852 856 858 860 860 862 864 865 866 867 869 870 872 874 874 875 876 878 879 879 880
782 783 783 785 785 787 790 791 793 796 799 802 804 807 810 812 813 815 816 817 818 820 821 823 825 826 827 829 830 831 833 834 835 836 836 837 837 838 838 837 838 838 838 838 839 840 840 841 841 842 843 845 845 846 846 846 846 847 848 848 849 850 850 850 852 855 858 859 860 861 863 864 865 866 868 869 871 872 874 875 876 877 878 878 878
783 785 785 786 786 789 792 793 794 796 799 802 804 807 809 811 813 814 816 818 819 820 822 823 825 826 827 829 830 831 832 834 835 836 837 838 838 838 838 839 839 839 838 838 839 840 841 842 843 844 845 845 846 847 847 847 847 848 849 850 851 851 852 851 852 854 856 858 859 859 861 863 864 864 866 868 870 871 872 874 875 875 876 876 876
782 788 789 788 788 791 794 796 797 798 800 802 804 806 809 811 812 814 816 818 819 821 822 823 825 826 828 829 830 831 832 834 835 836 837 838 838 839 839 840 840 840 840 840 840 841 842 842 843 844 845 846 847 847 848 848 848 849 850 850 851 852 853 853 852 853 854 856 857 858 859 862 863 863 864 866 868 870 870 872 873 873 874 875 874
783 790 792 791 791 792 794 796 798 800 801 803 805 807 809 811 813 815 817 818 819 821 822 823 825 826 828 829 830 831 832 834 835 836 837 838 839 840 840 840 841 841 841 841 841 842 842 843 843 844 845 846 847 848 848 849 849 849 850 850 850 851 853 854 853 853 854 854 856 857 858 860 861 861 862 864 866 867 868 869 870 871 872 873 873
784 790 792 791 791 792 793 795 797 800 802 804 806 808 810 812 814 815 817 818 820 821 822 824 825 826 828 829 830 832 833 834 835 836 838 838 839 840 841 841 841 842 842 842 843 843 843 843 844 845 845 846 847 848 848 849 850 850 850 850 850 851 852 853 853 853 853 853 854 856 856 858 860 860 861 862 864 865 866 866 867 869 870 871 872
785 788 790 790 791 791 793 795 797 800 803 805 807 809 811 813 814 816 817 818 820 821 822 824 826 827 828 829 830 831 833 834 835 837 838 839 840 840 841 842 842 842 843 843 843 844 844 844 844 845 846 846 846 847 848 849 850 850 850 851 851 851 851 852 852 852 852 852 853 854 855 856 858 859 859 860 861 862 863 864 865 866 867 869 871
785 788 791 792 792 792 794 796 799 802 804 806 808 809 811 814 815 816 817 819 820 822 823 825 826 827 828 829 831 832 833 834 835 837 838 839 840 841 841 842 842 843 843 843 844 844 844 845 845 845 845 846 847 847 848 849 849 850 850 851 851 852 851 851 852 851 851 851 852 852 853 854 855 856 857 858 858 859 860 862 862 863 865 866 868
788 790 792 794 794 794 795 798 801 803 805 807 809 810 812 814 815 816 818 819 821 822 824 825 826 828 829 830 831 833 834 834 835 836 837 838 840 841 841 842 842 843 843 843 844 844 844 844 844 845 845 846 847 847 848 849 850 850 851 851 851 852 851 851 851 851 851 851 852 853 852 852 853 854 855 856 857 858 858 860 860 861 863 864 865
790 792 794 795 795 794 795 798 802 805 808 809 810 811 812 813 815 817 818 819 822 823 825 826 827 829 830 831 833 834 834 835 835 836 837 838 839 840 841 842 842 842 843 843 843 844 844 844 844 845 845 845 846 847 848 849 849 850 850 850 851 851 851 851 850 850 850 850 851 853 851 850 851 853 854 855 856 857 857 858 858 859 860 861 863
793 795 797 797 796 794 795 799 803 807 810 811 812 812 813 813 815 817 818 820 822 824 825 827 828 829 831 832 833 834 835 836 836 837 838 839 839 840 841 841 841 842 842 842 842 842 843 843 844 844 845 845 846 846 846 847 848 849 849 849 850 850 850 851 850 850 850 849 849 850 849 849 850 851 852 853 854 855 856 856 856 857 857 859 860
796 797 798 797 796 796 798 800 804 808 811 813 814 814 814 815 816 818 820 821 823 825 826 827 829 830 831 833 834 835 836 837 838 838 839 840 840 840 841 841 841 841 841 841 841 841 841 842 842 843 844 844 845 846 846 846 846 847 847 848 848 848 848 849 849 849 849 849 848 848 847 848 848 848 849 850 851 852 853 853 853 854 856 857 857
798 798 798 798 798 799 800 802 805 808 811 814 816 816 816 817 818 819 821 822 824 826 827 828 829 831 831 833 834 835 836 837 838 839 839 840 840 840 841 841 840 840 840 840 840 839 840 840 841 841 842 842 844 845 846 846 846 846 846 846 846 846 846 846 847 847 847 847 847 847 847 847 846 846 847 848 849 849 850 851 851 853 854 854 854
801 801 801 802 803 803 804 805 807 809 812 815 817 817 817 818 820 821 822 823 824 826 828 829 830 831 832 834 835 836 837 838 838 838 839 840 840 840 840 840 840 840 839 838 839 838 838 839 839 839 840 841 841 843 844 844 845 845 845 845 845 845 845 845 844 845 845 845 846 846 846 846 846 846 846 846 847 848 848 849 850 851 852 852 852
806 806 805 806 807 808 808 808 809 811 813 815 816 817 818 819 821 822 823 824 825 827 829 829 830 831 833 834 836 836 837 838 838 838 839 840 840 840 840 840 840 840 839 838 838 837 836 837 838 838 839 839 840 841 842 843 843 844 844 843 843 843 843 843 843 843 843 844 844 844 844 844 845 845 845 846 847 847 847 848 849 850 850 851 852
810 810 811 811 812 811 811 812 812 813 815 815 816 817 818 819 822 823 824 825 826 828 829 830 831 832 833 835 836 837 838 838 838 838 838 839 839 839 840 840 840 839 839 838 837 836 836 836 836 837 837 837 838 840 841 841 842 842 842 842 842 842 841 840 841 841 842 842 842 843 843 843 843 843 844 845 845 845 846 848 849 849 849 850 852
814 814 814 815 815 815 815 815 816 816 817 817 818 820 820 821 823 824 825 826 827 828 829 830 831 832 833 835 836 837 837 837 837 838 838 838 839 839 839 840 839 839 838 837 837 836 836 836 836 837 836 836 838 839 839 839 840 840 841 841 840 840 840 839 839 839 840 840 840 841 841 842 842 842 843 844 845 846 847 847 848 848 848 848 850
818 818 818 818 818 818 818 818 818 819 820 820 821 822 822 823 824 825 825 826 827 828 829 830 831 833 834 835 836 837 838 837 837 837 837 837 838 838 839 839 839 839 838 836 836 836 837 837 837 838 838 837 838 838 838 838 838 838 839 839 838 839 839 838 838 838 839 839 839 839 840 840 841 841 841 842 844 845 846 847 848 848 847 847 849
821 821 820 820 820 820 821 821 821 822 822 823 823 824 824 825 826 826 827 827 828 829 830 831 832 833 835 836 837 837 837 837 837 837 837 837 837 838 839 838 838 839 838 836 836 836 836 837 837 838 838 838 838 838 837 837 837 837 838 838 837 837 838 838 837 837 838 838 838 838 838 839 839 840 840 841 842 844 845 846 846 847 847 847 847
823 823 823 822 823 823 823 823 824 824 825 825 825 826 826 827 827 827 828 829 829 830 831 832 833 835 835 836 837 838 838 838 838 837 837 837 837 838 838 838 838 838 837 837 837 837 837 837 837 837 837 837 837 837 837 837 836 836 836 836 836 837 837 837 837 837 838 839 839 839 839 839 839 840 840 841 842 843 844 845 844 844 845 845 845
826 826 825 825 825 825 825 826 826 827 828 828 828 829 829 829 829 829 830 831 831 832 833 834 834 835 836 837 838 839 839 839 839 838 838 838 838 838 838 838 838 838 837 837 838 837 837 837 836 836 836 836 836 836 836 835 835 835 835 835 835 836 836 837 837 837 837 838 839 839 839 839 840 840 841 842 843 843 843 843 843 843 844 845 845
829 828 828 828 827 827 828 828 828 829 830 831 831 832 832 832 832 832 832 832 833 833 834 835 835 836 837 838 839 840 840 840 840 839 839 839 839 839 838 838 838 838 837 838 838 837 837 836 836 836 835 836 836 835 835 834 834 834 834 834 834 835 835 835 836 836 836 837 838 838 838 839 839 840 840 842 843 843 842 842 843 844 845 846 846
832 831 831 831 830 830 830 830 830 831 832 833 833 834 834 834 834 834 834 834 834 834 834 835 836 837 838 839 840 841 841 840 840 840 840 840 840 840 839 839 839 838 838 838 837 836 835 835 835 835 835 835 835 834 834 833 833 833 833 832 833 833 833 834 834 834 834 835 836 837 838 838 838 838 838 840 842 843 842 843 844 845 845 846 846
834 834 834 833 832 832 832 832 833 833 834 835 835 835 836 836 836 836 836 836 836 836 836 836 836 837 839 840 841 842 842 842 841 841 841 841 840 840 840 840 839 839 839 838 837 836 835 835 835 834 834 834 833 833 833 832 832 832 831 831 831 831 832 832 832 833 833 833 834 835 835 836 837 837 836 838 841 844 844 845 845 845 846 846 847
835 835 836 835 835 835 834 834 835 835 836 837 837 838 838 838 838 838 838 838 839 838 838 838 838 839 840 841 841 842 842 843 843 842 841 841 840 840 840 840 840 839 838 838 837 835 834 834 833 833 833 832 832 831 831 830 830 830 830 829 829 830 831 831 831 831 830 831 832 833 832 833 834 836 837 840 842 844 845 846 846 847 848 848 849
837 837 837 837 837 836 836 836 837 838 839 839 840 840 841 841 841 841 841 841 840 840 841 841 840 841 841 842 842 842 842 843 843 842 842 841 841 840 840 840 840 839 838 838 836 835 834 833 832 832 831 830 830 830 829 829 829 828 828 828 828 828 829 829 829 829 829 829 829 830 830 831 832 835 837 839 841 843 844 845 845 846 847 849 850
839 839 839 839 838 838 838 838 839 840 841 841 841 842 843 843 843 843 843 843 842 842 843 843 843 843 843 843 843 842 842 843 843 843 843 842 841 841 840 840 839 839 838 837 836 834 833 832 831 830 829 829 829 828 828 828 827 827 827 827 827 827 827 827 828 828 828 828 828 829 829 830 832 833 835 836 839 842 843 843 844 845 846 848 849
840 840 840 839 839 839 840 840 841 842 843 843 843 844 845 845 846 846 845 845 844 844 844 844 844 845 844 845 844 844 844 844 844 843 843 842 841 841 840 839 838 838 837 836 835 834 833 832 831 830 829 829 828 828 827 827 827 827 827 827 827 827 827 827 828 827 827 828 828 829 830 831 832 833 834 836 839 840 841 842 844 845 846 847 849
841 841 841 841 841 841 841 842 842 843 844 845 845 846 846 847 847 847 847 847 846 846 846 846 845 845 845 846 845 845 845 844 843 843 843 842 841 840 839 839 838 837 836 835 834 833 832 831 830 830 829 828 828 827 827 826 826 826 826 826 827 827 827 827 828 827 827 827 828 829 830 831 833 834 835 837 838 839 840 842 844 846 846 847 848
843 844 844 844 843 843 843 844 844 844 844 845 845 846 847 847 848 848 848 848 848 848 847 847 847 847 847 846 846 846 845 844 843 843 842 841 841 840 839 839 838 837 836 835 833 832 831 830 829 828 828 827 826 826 826 826 825 825 825 826 826 827 827 827 827 828 827 827 827 828 830 831 833 835 836 837 838 839 841 843 844 845 845 846 848
845 845 846 846 845 845 845 845 846 846 846 846 846 846 846 847 848 849 849 849 849 849 849 848 848 848 847 847 846 846 845 844 844 843 842 841 840 840 839 838 837 836 835 834 833 832 830 829 828 827 827 826 826 826 826 826 826 825 825 826 826 827 827 827 827 828 828 828 828 829 830 832 834 835 836 838 839 841 843 844 844 845 846 846 848
846 846 847 846 846 847 847 847 847 847 847 848 848 847 847 848 848 849 849 850 850 849 849 849 848 848 848 847 847 846 845 845 844 843 842 841 840 839 839 838 837 836 835 833 832 831 830 830 829 828 827 826 826 827 827 828 828 827 827 827 826 827 827 827 827 828 829 830 830 831 831 833 834 835 837 839 840 842 844 844 845 846 846 847 848
848 848 848 847 847 848 848 848 849 849 849 850 850 850 850 850 850 850 850 850 850 850 849 849 849 849 848 848 847 846 846 845 844 843 842 841 840 840 838 837 836 835 834 833 832 831 831 831 831 830 829 829 829 829 829 829 829 828 828 827 827 827 827 826 827 828 829 829 830 831 833 834 835 836 838 840 841 842 844 844 845 846 847 847 848
850 850 850 849 849 849 850 851 851 851 852 852 852 852 852 852 852 851 851 851 850 850 849 850 850 849 849 849 848 847 846 845 844 843 842 841 840 839 837 836 835 835 834 834 834 834 834 834 833 833 832 832 831 830 830 830 830 829 829 828 828 827 827 827 828 829 829 829 830 831 833 835 836 838 839 840 841 843 844 845 846 847 847 848 848
850 851 851 852 852 852 853 853 853 853 854 853 853 853 853 853 852 852 852 852 852 850 850 850 850 849 848 848 848 848 847 846 845 844 843 842 841 839 838 836 836 836 836 836 836 837 837 836 836 835 835 834 833 832 832 831 831 830 830 829 829 828 828 828 829 829 829 829 830 831 832 835 837 838 840 841 842 843 844 845 846 846 847 847 847
851 852 852 853 854 854 855 855 855 855 855 855 855 854 854 854 853 853 853 854 853 851 851 851 851 849 849 849 848 848 847 846 845 845 844 843 842 841 840 839 838 838 838 838 839 839 839 838 838 837 836 835 834 833 833 832 832 831 831 830 829 829 829 829 829 829 829 829 830 831 833 835 837 839 840 842 843 844 845 846 846 846 847 847 846
854 853 853 854 855 855 856 856 856 856 856 856 856 855 855 855 854 854 854 854 854 853 852 852 851 851 851 850 849 848 847 846 845 845 845 845 844 843 842 842 841 841 840 841 841 841 840 840 839 838 837 837 836 835 834 833 832 831 831 831 831 830 830 830 830 830 830 831 832 833 835 836 838 840 841 842 843 844 844 845 845 846 846 846 846
856 856 857 857 857 857 857 857 857 857 857 857 856 856 856 856 855 855 854 854 854 853 853 852 853 853 853 852 851 849 848 847 847 847 847 847 846 846 845 845 844 844 844 843 843 842 842 841 841 840 839 838 837 836 835 834 833 832 832 832 831 831 831 831 831 831 832 833 834 835 837 838 839 840 841 842 843 844 844 845 845 845 845 845 845
858 858 858 858 858 858 858 858 858 858 858 857 857 857 857 856 856 855 855 855 855 854 854 853 854 855 854 853 852 851 849 849 849 849 849 849 848 848 847 847 846 846 846 845 845 844 844 843 842 841 840 839 838 837 836 835 834 833 832 832 832 832 833 833 833 833 833 834 836 838 839 839 840 841 842 843 844 844 844 845 845 845 845 845 844
858 859 859 859 858 858 858 858 858 858 858 858 857 857 857 857 857 856 856 856 856 855 855 855 856 856 856 854 853 852 851 850 851 851 850 850 849 849 849 848 848 847 847 847 846 846 845 844 844 843 841 840 839 839 837 836 835 834 833 833 833 833 834 834 835 835 835 837 838 840 840 841 842 843 843 844 844 844 844 845 845 844 844 844 843
858 859 859 859 858 858 858 858 858 858 859 859 858 858 857 858 858 858 858 858 857 857 857 857 857 858 857 855 854 852 852 852 852 852 851 851 851 850 850 850 850 849 849 848 848 847 847 846 846 844 843 842 841 840 839 838 837 836 835 835 834 835 835 836 837 837 838 839 840 841 842 842 843 843 844 844 844 844 844 844 844 844 843 843 843
859 859 858 859 859 859 859 859 858 859 860 860 859 859 858 858 858 858 859 859 859 859 859 859 859 858 857 856 854 853 853 853 853 853 853 853 853 852 852 852 852 851 851 850 850 849 849 848 848 847 846 845 843 842 841 840 839 838 837 837 836 836 837 837 839 840 841 841 841 842 843 843 844 845 845 845 845 845 845 844 844 844 843 843 842
859 859 858 859 859 860 860 860 860 860 861 860 860 859 859 859 859 859 859 860 860 860 860 860 860 859 858 857 855 855 855 855 855 855 855 855 854 854 854 854 853 853 853 852 851 851 850 850 850 849 848 847 846 845 844 843 841 841 840 839 839 839 839 840 840 841 842 843 843 843 844 845 846 846 846 846 846 846 845 845 845 844 844 843 843
859 859 858 859 859 859 860 860 860 861 861 860 859 859 859 859 859 860 860 860 861 860 860 861 861 860 859 858 857 857 857 857 857 857 857 857 856 856 856 856 855 855 854 854 853 852 851 851 851 850 849 849 848 847 847 845 844 843 842 842 842 842 842 842 842 843 843 844 844 845 846 846 846 847 846 846 846 846 845 845 845 845 844 844 844
859 859 858 858 859 859 859 860 860 861 861 859 859 859 859 859 859 860 861 861 861 861 860 861 861 861 861 860 859 858 858 858 859 859 859 858 858 858 858 857 857 856 856 855 855 854 853 852 852 851 851 850 849 849 849 848 847 846 845 844 844 843 844 844 844 845 845 845 845 846 846 846 847 847 846 846 846 846 845 845 845 845 845 845 845
858 858 859 858 858 859 859 859 860 860 860 860 859 859 859 859 860 860 861 861 861 861 860 861 861 861 862 862 861 860 859 859 860 860 860 860 860 859 859 859 858 858 857 856 856 855 854 853 853 852 852 851 850 850 849 849 848 847 847 846 846 845 845 845 845 846 846 846 846 847 847 847 846 846 846 846 846 846 846 846 846 846 846 846 846
858 858 858 858 858 858 858 859 859 860 860 860 860 860 860 860 859 859 860 860 861 861 861 861 861 861 862 862 862 861 861 861 861 860 861 861 861 860 860 859 859 859 858 857 856 856 855 855 854 853 853 852 852 851 850 850 849 848 848 847 847 847 846 846 846 846 846 846 847 847 847 847 846 846 845 846 846 846 846 846 846 846 846 846 846
858 858 858 858 858 858 858 858 859 859 859 860 860 860 860 860 859 859 858 859 859 860 860 861 861 861 861 861 862 862 861 861 861 861 861 861 862 861 860 860 859 859 859 858 857 857 856 855 855 854 853 853 853 852 851 851 850 850 849 848 848 847 847 847 846 846 846 846 847 847 847 847 847 847 847 847 847 847 847 847 846 846 846 846 846
858 858 858 858 857 857 857 858 858 858 858 859 859 858 858 859 859 858 858 858 859 859 859 860 861 861 861 861 861 861 861 861 861 861 861 861 861 861 861 860 860 859 859 859 858 858 857 856 856 855 855 854 854 853 852 852 851 851 850 849 849 848 848 847 847 847 847 846 847 847 847 847 847 847 847 847 847 847 847 847 847 847 846 846 846
858 857 857 857 857 857 857 857 857 857 858 858 857 856 856 857 857 857 858 858 858 858 858 859 860 861 861 861 861 861 861 861 861 861 861 861 861 861 861 861 860 860 860 860 859 859 858 857 857 856 856 855 854 854 853 853 852 851 851 850 849 849 848 848 847 847 847 847 847 847 848 847 847 847 848 847 847 847 848 847 847 847 847 846 846
Wind_Speed
13 12 13 13 14 17 18 16 16 16 16 15 15 14 13 12 11 10 10 10 12 12 11 10 10 9 9 8 8 9 9 9 8 8 8 7 6 6 6 6 6 6 5 5 5 5 5 6 7 9 10 11 12 10 9 7 5 6 8 7 6 6 8 9 9 8 7 8 10 11 12 12 11 12 13 13 13 13 13 15 18 18 16 14 13
10 11 10 11 14 16 17 16 15 15 15 15 14 14 13 12 11 10 9 10 12 13 11 11 9 9 9 8 8 9 9 10 9 8 7 6 6 6 6 6 6 6 6 6 6 5 5 6 8 9 10 11 11 10 9 8 7 7 6 6 7 6 5 8 11 10 9 9 10 11 12 12 11 12 14 14 14 14 14 16 18 17 14 14 14
7 10 10 10 13 15 14 15 15 15 14 14 14 14 13 12 11 10 9 10 12 12 11 11 10 9 9 8 8 9 9 10 9 7 7 7 7 7 6 6 6 6 6 7 7 7 6 7 8 9 10 10 10 9 9 8 6 7 6 4 5 4 3 7 11 11 10 10 11 11 12 12 11 13 15 14 15 15 15 17 18 16 15 15 15
7 9 10 9 11 13 10 11 15 15 15 15 14 15 14 13 12 10 9 10 11 12 11 10 10 9 8 9 9 9 10 10 9 8 7 7 8 8 7 7 7 6 5 7 8 8 7 8 8 9 9 9 8 7 7 6 4 5 6 4 5 3 1 2 8 11 11 11 11 12 13 13 12 13 15 15 15 15 15 17 17 16 16 15 17
8 8 10 9 10 10 7 8 11 12 14 15 15 15 14 13 12 11 10 10 10 11 11 10 10 9 8 9 9 10 10 10 9 9 8 8 8 8 8 8 6 5 5 6 7 7 8 8 8 9 8 7 7 6 5 4 3 4 5 5 6 6 4 3 5 8 11 12 11 12 13 14 13 13 15 15 16 16 16 17 16 16 15 12 14
5 4 10 12 12 13 13 13 12 10 11 14 14 14 14 13 13 12 10 10 10 9 10 10 10 9 9 9 9 10 10 11 10 10 9 9 9 8 8 7 6 6 5 5 5 6 6 6 7 7 7 7 6 5 4 4 3 3 3 4 5 6 7 7 7 7 9 11 12 12 13 14 13 13 15 16 16 16 16 17 16 15 15 12 9
5 9 13 16 16 16 18 19 15 10 11 13 13 13 13 12 13 12 11 10 10 9 9 10 9 9 9 8 9 10 11 11 11 10 10 9 9 8 7 7 6 6 5 5 5 5 5 5 5 5 4 4 4 4 3 4 4 4 4 5 5 4 6 8 8 9 11 11 12 12 13 14 14 13 15 16 16 16 16 16 16 15 15 15 12
12 14 14 17 18 16 18 19 15 12 13 14 12 12 12 12 11 11 11 10 10 9 9 10 10 8 8 8 9 10 11 11 11 10 10 9 8 8 7 7 6 6 5 5 5 4 4 4 4 4 3 3 3 2 2 2 2 2 3 3 4 5 5 6 8 11 12 12 13 13 13 14 14 14 15 16 17 17 17 17 17 16 16 16 15
13 15 12 13 14 13 13 16 16 15 15 15 13 11 12 12 11 11 11 10 9 8 9 10 11 9 8 8 9 10 10 10 11 10 9 9 8 7 7 6 6 6 5 5 5 5 5 5 4 4 4 4 3 2 2 2 2 2 2 3 4 6 6 7 9 9 11 12 13 13 14 15 15 16 16 17 18 18 17 18 17 17 17 16 15
10 11 10 10 11 12 11 12 13 13 13 14 14 13 12 11 10 11 11 10 8 8 9 10 10 9 8 7 7 8 7 7 10 10 9 9 8 6 7 7 6 7 7 6 7 6 6 5 5 6 5 5 5 5 4 4 4 4 4 3 4 6 7 8 9 9 11 11 11 12 15 15 16 17 16 17 18 17 17 18 17 16 16 15 14
8 8 9 10 11 13 13 12 10 9 9 11 13 15 15 14 12 11 11 11 9 7 8 9 9 8 8 7 7 6 4 4 9 10 9 10 8 5 5 7 7 7 8 8 7 7 7 6 6 6 6 5 5 5 4 4 5 6 7 6 8 9 10 11 10 11 12 11 12 16 17 14 14 16 16 17 17 17 17 17 17 18 17 15 14
12 10 9 10 11 13 13 13 12 10 9 10 13 16 17 17 16 13 13 13 11 8 7 8 8 7 7 6 6 5 2 2 8 10 8 9 8 4 3 6 7 7 8 8 8 7 7 7 6 6 6 6 6 5 6 6 6 7 8 9 10 11 12 13 14 13 14 11 10 14 16 13 14 17 18 18 18 18 19 19 19 18 16 16 16
17 14 11 11 11 11 12 13 13 12 10 10 13 15 16 17 16 14 12 12 11 9 7 7 8 7 6 5 4 3 1 3 6 9 9 9 9 7 5 6 7 8 8 8 8 8 8 8 8 7 8 8 7 6 7 7 8 9 10 11 12 14 14 16 17 17 18 17 14 13 14 15 16 16 17 19 19 19 20 19 17 14 14 17 17
20 19 16 13 10 11 12 13 13 12 10 10 12 14 15 15 15 13 11 10 10 8 6 7 8 7 6 6 3 2 4 5 6 7 9 9 10 10 9 8 7 8 9 9 9 10 9 9 9 10 10 10 9 8 8 8 8 9 11 11 12 14 15 17 18 18 20 20 19 17 16 16 16 15 14 18 19 18 18 17 15 15 16 16 14
21 21 20 17 13 11 12 12 12 12 12 11 10 10 13 14 12 8 7 7 7 6 5 6 8 7 7 5 4 5 7 7 7 8 10 10 11 11 12 10 10 10 11 11 12 11 11 10 11 11 11 11 10 10 10 10 10 11 11 11 12 14 15 16 17 18 18 18 17 17 17 17 17 15 12 12 14 15 15 16 16 17 16 12 11
21 20 20 19 17 13 11 11 12 13 13 12 11 10 13 15 12 7 5 6 7 6 5 6 6 6 5 5 5 8 9 8 8 9 9 10 11 11 11 11 11 12 14 16 16 14 12 12 12 13 14 12 10 10 11 11 11 12 13 13 14 16 16 17 18 19 19 19 18 18 17 16 16 14 12 12 13 15 14 13 13 13 11 9 8
19 19 18 18 17 15 14 14 13 14 13 11 11 11 12 13 12 9 8 8 8 8 7 7 6 6 7 6 5 7 6 6 7 7 8 9 10 10 9 9 11 13 15 17 15 12 12 13 14 14 12 9 7 9 11 11 12 13 14 15 16 16 16 17 19 20 20 21 21 20 18 17 15 15 16 15 16 17 16 13 12 12 10 8 11
18 17 16 16 16 16 15 15 14 13 13 11 10 10 10 10 10 9 10 9 9 10 9 9 9 8 8 8 6 6 4 4 5 5 6 7 7 8 8 9 13 16 15 14 13 12 12 14 15 12 9 7 6 8 10 11 12 13 13 14 16 16 14 15 18 19 19 19 20 19 19 18 16 15 15 14 14 14 14 13 13 14 13 11 13
17 16 16 16 16 16 16 16 15 14 13 12 10 9 9 9 8 9 11 10 10 10 10 10 9 9 9 8 5 2 2 2 3 3 3 4 5 7 7 8 13 15 13 11 11 11 11 11 9 8 8 8 7 9 11 13 13 12 11 11 13 14 13 12 15 16 16 17 17 18 19 18 17 17 16 15 15 16 15 14 14 15 14 11 12
15 15 15 16 16 16 17 17 16 15 13 13 12 10 9 9 8 7 8 10 11 10 10 11 10 10 10 10 7 4 3 2 2 1 1 2 4 4 4 5 9 10 10 11 12 12 12 10 5 4 7 7 8 10 13 15 15 13 11 9 10 11 9 10 13 14 13 12 13 14 14 13 13 14 13 11 13 15 14 10 7 9 10 10 14
14 14 14 15 16 16 16 16 16 15 13 13 13 13 12 11 10 10 9 9 11 11 10 10 11 10 9 9 8 6 5 5 4 4 3 1 1 2 2 4 5 6 7 9 10 10 8 4 1 2 6 7 8 9 10 11 13 13 12 10 11 10 7 7 11 12 10 9 8 8 8 8 7 8 8 8 10 10 8 4 2 3 4 2 6
13 13 14 14 14 15 15 15 14 14 13 12 12 12 11 10 10 10 10 10 10 11 10 10 10 10 9 8 8 7 6 5 5 5 5 5 3 2 1 2 3 3 3 5 7 7 3 1 2 4 6 7 8 8 7 8 9 11 12 13 13 13 11 9 9 9 9 10 10 9 9 8 8 8 8 8 8 6 5 4 5 6 7 5 6
11 12 13 13 13 13 14 14 14 13 12 11 10 9 9 8 8 8 8 8 8 8 8 9 9 10 9 7 7 6 5 5 6 5 5 5 4 3 2 2 2 2 2 5 7 5 1 2 3 5 7 9 9 8 8 8 8 9 11 12 13 15 14 11 9 9 9 11 11 11 11 12 11 10 10 9 6 6 6 5 5 5 6 4 4
10 10 11 11 12 13 13 13 13 13 12 11 10 10 9 8 7 7 5 6 6 5 5 6 7 8 8 7 6 6 5 6 7 6 5 5 5 5 4 4 4 3 2 6 8 6 3 4 8 9 10 11 11 10 10 10 10 10 10 10 11 13 14 13 11 11 11 11 10 10 10 10 9 9 10 9 8 8 7 6 5 3 3 3 1
10 9 9 9 10 12 12 13 13 13 12 11 11 11 10 9 9 8 7 7 6 5 4 4 4 5 5 5 5 4 3 3 5 8 7 6 6 6 5 5 5 4 4 6 8 9 9 11 11 12 12 12 12 11 11 11 12 11 10 10 10 10 11 12 11 10 11 11 10 8 6 3 2 6 12 13 9 5 4 5 5 4 4 4 1
10 9 10 9 9 9 10 11 12 11 11 11 11 10 10 10 9 9 8 7 7 6 6 5 5 4 4 3 3 3 2 2 5 8 8 7 6 6 6 6 7 7 6 7 9 10 11 12 12 12 12 12 11 10 9 11 13 12 11 11 9 8 9 11 12 14 14 13 12 11 10 10 10 10 12 10 7 5 5 6 7 6 5 4 2
9 9 9 9 10 10 11 11 10 10 10 10 10 10 10 10 10 10 9 8 7 7 6 6 6 5 4 3 2 1 2 3 6 8 9 8 8 8 8 8 9 9 8 8 9 11 13 14 14 14 13 12 11 10 9 11 13 13 12 12 9 8 10 11 13 17 18 17 16 16 16 16 16 15 13 13 13 13 12 10 9 8 6 4 3
9 9 9 9 9 10 10 11 11 11 11 11 11 11 11 11 11 12 12 10 8 8 7 7 7 6 5 5 3 2 3 6 7 9 10 10 11 11 10 9 9 9 9 10 12 12 12 13 13 12 12 11 11 10 10 10 11 11 11 10 9 8 10 12 13 15 16 17 17 18 19 19 19 18 18 19 18 16 14 12 11 11 9 7 5
8 8 8 9 9 9 9 9 10 11 12 13 14 14 12 11 11 12 12 12 11 9 8 9 8 7 7 7 7 5 5 7 8 8 8 9 11 11 11 11 12 11 11 12 13 12 10 10 9 9 8 8 7 7 6 7 8 7 6 7 7 8 9 10 11 12 15 18 20 20 21 21 20 20 20 20 18 16 14 12 10 9 8 6 5
7 8 8 8 8 8 8 8 7 8 9 10 12 13 13 13 12 11 11 12 12 11 11 12 10 8 8 9 8 7 6 7 8 7 6 8 8 9 10 11 12 12 12 12 12 12 9 9 8 8 7 7 6 5 5 5 5 5 5 5 7 8 8 9 10 11 15 20 22 22 22 22 21 20 19 18 15 13 13 11 8 6 6 5 3
7 8 8 8 7 7 8 7 7 7 6 6 7 9 10 13 15 14 13 13 13 14 14 14 12 10 8 8 7 6 6 6 6 6 6 7 7 8 8 8 9 10 10 9 9 10 9 8 7 7 7 7 8 8 9 9 9 8 7 7 7 7 8 9 10 11 14 21 23 23 23 24 22 20 18 16 14 12 11 10 8 6 5 4 2
7 8 8 7 7 7 7 7 7 7 7 6 5 5 6 8 10 11 12 13 14 15 15 15 15 13 11 9 8 8 8 7 6 6 6 5 6 6 5 5 7 9 8 7 7 7 7 7 8 8 8 9 9 9 9 11 12 10 9 9 8 8 8 10 10 10 13 16 19 19 19 19 18 17 15 14 12 11 10 8 7 5 3 1 2
7 7 7 6 6 7 7 7 7 7 7 7 7 7 6 5 5 5 6 7 8 10 12 14 16 15 13 12 11 10 9 9 9 7 6 6 5 5 4 4 4 6 8 7 7 6 6 7 8 10 10 10 10 10 10 10 11 11 10 10 10 9 8 8 8 9 9 10 11 13 15 16 16 15 14 13 11 10 8 6 4 3 1 2 3
7 7 7 6 6 7 7 7 8 8 8 8 7 7 7 6 5 4 3 3 3 3 6 9 12 13 12 11 11 9 9 10 10 9 8 7 6 5 6 7 5 2 6 8 8 8 9 10 10 11 11 11 12 12 11 10 11 12 12 11 11 11 8 4 5 7 9 11 13 15 16 18 17 15 13 12 10 8 6 4 3 2 2 4 6
8 8 9 9 7 7 8 8 7 7 7 7 7 7 6 6 5 6 6 5 4 3 3 5 8 11 12 12 9 9 11 12 12 11 10 10 9 8 8 9 6 4 5 8 9 10 11 11 11 12 12 12 12 12 12 11 11 12 12 11 13 12 6 2 4 7 11 14 17 18 19 17 15 12 11 10 9 6 5 4 4 5 6 7 8
6 5 6 8 8 8 8 8 7 7 7 6 6 7 6 6 5 6 6 6 6 5 5 5 5 7 10 12 8 7 11 13 13 13 13 13 13 12 10 9 8 8 8 9 10 10 10 11 11 12 12 12 12 12 11 11 11 11 11 12 14 12 5 1 4 8 13 16 19 21 20 16 13 10 9 9 8 6 4 4 6 7 7 7 7
5 5 5 7 7 7 8 8 8 8 7 6 6 6 6 6 6 6 7 8 7 6 6 7 6 4 9 12 9 8 10 10 10 13 14 13 13 13 11 9 10 9 9 10 11 10 10 10 11 11 11 11 11 11 11 11 10 10 11 11 12 11 7 3 6 11 15 19 20 19 16 13 12 10 9 8 7 5 4 5 7 6 5 5 7
8 7 7 7 7 7 6 7 8 7 6 5 6 6 6 6 6 6 6 7 7 6 6 7 7 7 10 12 11 10 11 9 8 10 12 12 12 12 11 10 11 10 10 11 11 10 10 10 11 11 11 11 10 11 11 10 10 9 9 9 9 9 7 5 10 14 17 19 17 14 11 11 11 11 10 7 5 6 7 6 6 5 4 5 8
6 7 7 7 8 8 7 5 5 5 4 4 6 6 6 6 6 6 7 7 7 7 7 7 9 10 11 10 10 10 10 9 9 10 10 11 12 12 11 11 11 10 10 10 10 10 10 10 11 12 12 11 11 11 10 10 10 8 7 6 6 5 3 8 13 16 15 13 10 8 9 10 10 9 7 5 5 6 5 4 4 4 4 6 8
5 6 5 4 4 6 6 6 5 5 4 4 5 6 7 7 7 7 7 7 7 8 8 8 9 10 10 9 9 10 9 9 9 10 9 10 11 11 11 11 11 10 10 10 10 10 10 10 11 12 12 13 13 12 11 11 10 8 5 3 3 1 4 10 13 12 9 8 8 9 10 9 7 6 5 5 5 4 3 3 4 5 5 6 7
4 4 3 2 2 4 4 4 5 6 5 5 5 5 6 7 7 7 7 7 7 8 8 8 9 9 10 10 9 8 8 8 9 9 9 10 11 11 12 12 12 12 11 11 11 12 11 11 11 11 12 13 13 13 12 12 11 8 5 4 4 5 7 8 8 8 8 9 10 9 7 5 5 5 3 2 1 0 1 3 4 4 5 6 6
3 3 2 1 1 2 3 3 4 5 5 5 5 4 5 6 6 7 7 7 7 8 8 7 7 8 10 12 11 8 7 8 9 10 10 11 11 11 11 12 13 13 12 12 12 13 12 12 12 12 13 13 13 12 13 13 12 11 8 5 4 5 7 7 7 7 9 9 8 5 4 5 5 3 1 3 2 2 3 3 4 5 5 6 4
3 3 3 1 1 1 2 2 3 4 5 4 4 3 4 4 5 5 6 6 7 7 7 7 7 7 8 10 11 10 9 9 9 10 10 10 11 11 11 11 11 11 11 11 11 11 11 11 11 12 13 13 13 12 12 12 12 12 10 6 4 7 9 9 7 6 7 7 6 5 5 5 4 4 4 3 3 4 4 4 4 5 6 5 5
4 4 3 3 2 2 1 1 2 4 3 2 2 3 3 4 4 5 5 5 6 6 7 7 7 7 8 9 10 10 10 10 9 9 9 9 10 10 10 10 10 11 11 11 11 11 11 11 11 11 12 12 13 13 12 12 12 12 11 9 7 8 10 10 9 9 8 7 7 7 5 3 3 3 2 2 3 4 5 3 3 5 7 7 6
5 4 3 4 3 2 2 1 1 2 1 2 1 2 3 3 4 5 4 4 4 5 5 6 6 7 8 8 9 9 10 10 9 9 9 9 9 10 10 10 11 11 11 12 12 13 12 11 11 12 12 12 12 13 13 13 13 13 12 12 11 11 10 10 10 9 8 8 7 6 5 4 3 2 3 3 2 3 3 3 3 4 5 6 5
5 5 4 4 4 3 2 2 1 0 1 1 0 1 2 2 3 3 3 3 3 3 4 5 5 5 6 7 7 7 8 8 9 9 9 9 10 10 10 10 11 11 12 12 13 13 13 13 13 13 13 12 12 12 12 12 12 11 11 11 12 11 11 10 8 7 5 5 5 4 4 2 1 1 3 4 3 3 3 4 4 3 4 5 5
5 5 5 5 4 4 3 3 2 2 2 2 1 1 1 1 1 2 3 3 3 2 3 3 3 4 4 4 4 5 5 6 6 7 8 8 9 9 9 9 9 9 10 11 11 11 11 12 12 12 12 12 12 12 11 11 10 9 9 8 8 7 6 6 6 5 3 3 3 3 2 2 3 2 1 1 3 4 3 2 3 3 4 5 6
5 6 6 6 5 5 5 4 3 3 4 3 2 2 1 1 1 1 2 3 3 2 2 2 2 2 2 2 2 3 3 3 4 4 4 5 6 7 7 7 7 7 8 9 10 10 10 10 11 11 11 10 10 10 10 9 9 8 8 7 6 5 4 3 2 1 1 2 3 4 3 4 6 6 3 2 4 6 5 3 4 4 4 5 5
5 5 6 6 6 6 6 5 5 5 5 4 4 4 3 2 2 2 2 3 3 2 2 2 2 2 2 2 2 1 1 2 2 2 2 3 4 5 5 6 6 6 7 7 8 9 9 9 10 10 10 9 9 8 8 8 8 7 7 6 6 5 5 4 3 2 2 1 3 4 4 4 4 5 4 3 4 5 4 4 6 6 5 6 6
6 6 6 6 7 7 6 5 6 6 5 5 6 5 4 3 3 3 2 3 3 3 3 3 2 2 2 2 1 1 1 1 1 1 1 1 2 3 4 4 5 5 6 6 7 7 8 8 9 9 9 8 8 7 7 7 6 6 5 5 5 4 4 4 3 2 2 1 2 3 4 4 3 3 3 3 3 3 4 4 5 6 6 7 7
6 7 7 6 7 7 6 6 7 7 6 6 7 7 6 5 5 4 4 4 4 4 4 4 4 3 3 3 2 1 1 0 1 1 1 2 2 2 2 3 3 4 4 5 5 6 6 7 7 7 8 8 8 7 7 7 7 6 6 6 5 5 5 5 3 2 1 1 3 3 3 3 3 2 3 3 2 2 3 4 5 5 7 7 7
Wind_Direction
176 173 167 163 165 164 158 152 148 146 145 147 149 149 148 148 151 153 155 154 155 159 160 156 156 156 155 156 158 161 165 164 164 163 163 166 167 163 166 170 160 149 153 154 143 146 159 158 152 153 158 154 148 146 146 149 142 128 130 140 140 147 166 163 146 145 153 150 153 156 158 163 163 158 156 154 154 153 158 171 169 162 167 175 176
184 179 175 169 167 166 160 151 145 144 146 146 149 152 150 149 151 151 155 158 158 162 160 156 160 160 158 159 157 161 169 168 168 172 169 168 164 163 171 168 150 141 147 146 137 138 148 152 150 151 154 152 151 151 151 154 151 143 144 145 141 150 165 153 147 151 155 160 166 160 162 175 173 165 163 161 165 167 165 174 175 170 177 184 187
220 188 182 176 171 169 161 152 145 142 146 148 150 154 154 152 151 151 157 162 162 163 161 160 164 164 162 161 156 161 167 168 171 173 169 167 167 170 170 153 140 144 149 143 137 135 138 144 142 144 150 154 158 159 160 173 170 150 147 138 135 153 164 147 152 158 162 169 174 167 171 186 186 174 171 169 174 176 170 174 181 185 188 187 193
221 196 180 166 161 163 156 145 144 145 151 154 151 154 157 154 152 155 161 165 166 167 165 165 167 167 167 165 160 161 162 164 170 169 166 167 166 164 159 149 149 151 139 130 131 131 135 140 138 139 147 154 161 164 167 184 180 151 155 152 144 162 226 156 161 162 165 174 184 181 176 186 195 183 175 175 180 184 181 180 189 198 197 194 198
209 201 178 157 135 137 137 136 144 150 156 156 152 154 157 155 154 158 163 165 167 169 168 170 171 170 172 170 165 162 161 162 165 163 161 162 161 159 154 152 152 144 126 120 123 126 133 140 140 142 148 151 160 170 172 178 181 168 171 173 172 178 193 223 206 180 174 179 188 191 181 183 197 192 182 180 183 190 192 188 195 203 200 200 201
199 131 134 141 131 134 148 154 155 159 159 154 154 157 158 157 157 159 164 166 166 169 171 171 171 173 175 175 169 165 163 163 162 161 159 157 156 155 151 151 147 139 135 130 124 127 133 136 139 145 155 161 169 179 172 174 196 204 209 224 211 183 182 209 227 211 197 190 190 196 188 185 197 199 191 188 188 195 200 195 199 206 202 202 207
146 110 121 139 143 149 158 160 155 155 157 153 154 158 159 161 162 160 164 166 163 168 171 168 170 174 173 174 171 167 165 164 162 162 160 156 153 152 152 153 147 142 145 140 132 134 134 136 143 151 161 166 173 185 184 194 218 226 231 250 255 222 195 207 222 223 218 208 199 201 197 192 198 203 200 196 194 199 205 202 201 207 205 200 202
133 133 140 150 151 150 155 158 156 153 153 150 151 158 161 162 162 161 163 164 164 170 170 166 169 171 171 174 171 166 166 166 165 165 163 160 156 156 159 160 156 154 154 148 141 141 141 142 148 151 154 153 148 141 153 200 231 254 262 259 259 255 241 230 228 227 224 220 214 211 206 201 203 206 204 202 200 202 209 208 204 204 202 199 206
127 135 144 150 149 143 145 155 158 152 147 145 144 148 156 162 163 160 160 159 161 169 169 167 170 169 169 170 164 163 166 164 167 170 164 162 164 165 168 170 171 171 170 166 166 167 163 155 156 166 171 186 194 180 192 236 268 307 309 306 288 275 267 254 249 247 238 229 224 220 214 211 211 211 208 207 207 208 211 212 212 211 206 205 214
119 132 139 139 138 132 128 140 151 149 146 147 142 134 135 146 151 152 154 154 156 164 166 166 167 165 162 156 153 161 164 162 172 173 160 160 168 171 176 185 189 188 189 188 185 188 188 181 190 202 200 205 214 213 221 233 246 258 263 276 283 284 287 275 263 263 255 240 236 236 229 219 214 212 212 216 218 217 218 218 219 220 217 213 215
98 112 129 133 133 132 129 132 146 153 150 148 144 139 134 131 124 122 129 134 135 144 155 160 162 160 158 155 152 157 158 171 183 181 167 166 173 178 192 202 205 203 203 203 201 203 207 206 207 214 218 218 220 231 242 241 244 252 258 263 262 267 281 286 279 270 259 242 234 242 242 232 222 219 218 221 221 221 226 225 223 225 223 218 219
82 86 109 118 122 134 138 135 141 149 150 151 154 152 148 141 129 115 112 121 129 131 129 132 139 144 148 151 148 148 153 189 189 188 186 185 187 195 219 216 214 217 218 217 217 215 216 221 220 221 228 230 231 243 257 262 265 264 263 263 262 261 264 271 278 279 275 272 257 250 248 240 234 229 223 223 222 222 229 232 230 231 228 223 225
76 73 85 98 106 122 130 129 134 140 144 152 155 155 153 147 137 125 117 120 130 138 135 130 131 132 135 135 126 130 195 199 188 195 206 214 216 221 241 249 238 233 232 230 231 230 226 225 224 225 233 238 241 248 255 264 271 274 275 271 268 266 262 260 264 266 270 279 283 275 265 254 245 237 230 230 228 222 226 231 231 231 229 229 230
69 66 69 80 96 118 125 125 131 136 139 148 151 150 151 144 133 130 130 124 120 125 141 153 154 149 148 148 138 193 223 213 203 212 223 232 234 231 239 258 258 247 244 241 239 238 233 231 232 232 234 236 236 238 244 255 265 270 276 277 271 270 269 266 263 260 262 268 274 274 271 266 263 259 248 241 235 226 223 224 227 231 231 232 227
61 60 63 66 74 96 116 126 136 141 143 149 150 145 152 156 151 144 140 135 130 126 130 154 167 170 168 169 191 230 236 229 216 220 230 236 240 238 241 253 259 256 256 252 248 244 238 238 243 244 245 244 236 230 230 242 258 264 265 267 268 269 270 266 259 256 255 257 261 266 268 268 268 267 258 242 232 228 226 225 231 236 227 213 201
54 55 59 61 62 66 81 102 123 135 137 145 152 149 155 165 171 173 156 144 146 147 148 156 162 168 164 165 200 222 232 236 226 221 229 236 244 247 250 257 258 258 261 257 251 248 245 244 247 250 252 250 243 241 241 242 254 265 267 266 268 269 266 258 253 253 253 254 255 257 261 265 263 254 248 239 227 226 229 229 230 225 204 189 200
52 53 57 61 62 61 66 78 96 112 117 125 139 143 150 158 165 174 173 164 154 150 148 139 133 141 148 152 185 212 221 235 237 233 232 237 245 247 249 261 263 259 262 262 257 254 254 253 252 252 257 255 243 251 257 254 256 265 271 272 272 268 259 252 253 255 255 258 260 257 255 256 253 246 241 232 222 221 224 222 218 208 189 195 226
50 52 54 57 59 60 64 69 76 88 93 96 109 122 130 139 152 166 168 161 153 148 138 122 119 130 139 148 179 205 212 219 225 228 229 235 244 242 244 262 266 261 260 264 266 267 267 262 254 253 272 289 265 250 253 256 262 269 273 275 276 273 261 251 255 260 261 263 262 259 256 251 247 247 243 233 229 230 222 217 224 223 215 216 229
46 49 52 54 57 59 61 63 65 71 75 77 85 98 106 110 130 155 155 144 135 134 130 119 113 114 111 114 132 168 182 188 195 212 222 236 251 248 251 271 276 273 274 278 281 283 293 299 279 255 271 292 281 263 257 256 260 268 273 275 277 279 272 255 255 264 270 269 263 261 262 258 255 255 251 243 244 240 224 219 234 239 233 231 240
45 47 49 51 53 54 55 56 59 60 66 75 78 79 86 91 95 115 131 127 117 115 121 121 117 115 120 125 127 115 103 125 137 151 215 258 262 249 257 290 297 299 302 303 301 297 306 326 335 249 259 282 288 281 271 264 261 262 267 273 274 278 277 259 256 266 271 267 264 264 261 257 255 254 243 227 224 220 212 214 236 238 229 231 237
46 47 48 49 49 50 49 50 53 54 61 75 78 73 76 83 82 80 87 100 106 107 107 110 110 109 117 133 135 118 99 96 92 89 93 90 214 201 219 265 288 311 318 313 309 309 313 336 45 242 269 286 296 293 283 273 266 260 259 262 263 267 271 260 261 270 268 257 257 257 242 227 225 225 212 199 196 194 192 182 142 178 194 217 252
45 45 48 48 49 51 50 49 51 52 55 66 72 69 69 71 76 82 86 93 103 108 104 103 105 102 99 105 112 108 101 94 87 81 79 74 76 105 190 245 254 284 316 306 297 303 317 170 200 267 286 287 290 292 286 279 273 265 261 260 259 261 263 262 262 265 258 248 245 243 236 227 217 205 195 195 187 162 142 149 161 177 175 124 65
47 45 46 47 47 50 52 51 52 53 53 58 66 67 64 63 69 84 99 104 107 111 113 117 118 113 109 107 103 97 83 68 62 61 61 57 50 46 29 355 313 279 304 323 313 313 24 166 236 278 290 289 291 293 289 286 283 277 271 266 260 257 255 252 247 239 239 247 251 248 243 238 230 220 213 208 187 134 113 132 162 185 190 160 86
52 49 49 50 51 52 53 54 56 57 54 54 58 58 57 59 61 63 75 94 103 106 114 125 128 122 121 122 115 98 67 43 33 32 37 43 38 31 20 357 337 308 316 337 328 319 308 295 294 294 293 292 293 293 294 294 292 290 287 279 269 260 251 244 243 239 240 251 260 257 251 250 246 224 197 169 135 108 104 114 120 122 133 138 143
51 53 53 56 58 60 61 59 59 57 54 53 54 51 49 50 51 50 51 59 70 76 77 86 101 107 110 113 109 100 83 57 34 18 10 10 13 8 1 355 346 328 316 316 310 300 295 297 302 302 298 295 292 290 290 290 288 290 288 282 275 264 249 240 239 238 231 226 226 218 203 207 205 153 140 131 120 110 113 107 95 85 90 95 90
49 53 55 58 60 65 68 67 62 59 59 60 58 54 51 50 48 47 50 54 59 62 57 54 63 75 78 78 77 80 102 91 47 21 4 355 353 347 346 350 344 335 331 324 319 314 308 307 314 317 315 311 305 297 285 278 281 286 285 278 270 256 244 235 229 226 216 205 207 204 188 185 189 167 143 137 140 140 130 114 100 92 83 70 58
53 55 56 60 63 65 68 68 67 64 61 62 63 60 56 57 53 44 38 38 47 58 60 55 54 55 52 48 45 66 115 85 42 14 360 358 359 357 360 359 348 342 340 332 328 325 316 312 316 316 315 315 312 305 293 282 284 289 291 289 282 260 247 243 237 232 223 210 205 202 194 190 191 184 171 167 163 152 143 140 141 142 141 134 129
61 63 60 62 64 67 69 69 70 67 62 60 62 59 54 55 55 51 45 41 40 43 47 49 45 32 26 28 15 360 73 63 32 1 349 349 351 354 356 351 341 338 330 320 322 324 316 311 314 315 315 319 320 316 310 305 305 303 297 293 285 263 251 247 240 233 227 216 203 194 188 184 182 180 176 171 168 163 156 155 161 164 160 154 159
62 64 64 65 66 68 72 74 77 78 72 69 68 66 62 61 61 58 57 59 59 54 49 48 42 26 21 27 20 6 16 18 1 343 337 336 336 340 342 338 334 332 326 320 323 326 315 298 295 298 302 305 308 306 304 309 318 316 298 280 272 265 260 250 235 221 214 209 202 193 187 179 174 173 172 166 164 166 164 162 165 162 156 163 190
66 62 60 60 61 66 72 73 79 87 88 87 84 78 68 60 60 63 66 66 66 66 64 61 54 44 37 32 23 10 356 345 333 325 324 325 325 327 328 328 329 328 325 323 324 321 307 287 277 277 279 280 284 292 292 288 291 296 297 293 281 273 267 253 239 223 209 203 200 194 187 179 170 167 165 160 157 160 160 158 156 151 151 162 196
78 76 70 59 52 62 72 70 69 74 82 95 106 104 87 65 55 56 63 66 65 64 62 57 52 49 47 38 22 7 352 339 333 330 327 323 323 322 321 329 339 340 336 330 321 307 294 287 287 287 287 289 295 301 303 303 302 299 300 303 293 277 268 257 243 225 208 202 200 195 189 181 171 165 161 153 144 147 157 162 158 148 143 149 194
85 90 88 76 62 65 73 74 70 66 64 62 66 89 106 95 74 63 59 54 50 49 48 42 35 29 28 30 24 10 2 359 354 346 339 330 326 327 333 349 4 5 357 335 312 302 303 309 310 303 299 302 307 311 318 324 323 317 308 302 295 282 273 262 241 219 207 202 195 185 178 171 162 156 153 147 142 149 162 168 159 145 142 178 237
81 80 76 74 76 74 70 70 69 63 60 57 49 45 53 71 88 92 84 64 49 44 45 39 28 17 13 18 17 10 7 10 5 356 351 352 350 349 346 337 346 12 9 340 306 306 328 333 325 319 317 318 322 327 331 327 320 314 312 308 301 294 286 266 234 214 207 195 174 160 158 160 158 156 154 154 155 156 153 152 150 144 166 244 252
80 65 43 41 63 69 62 61 63 60 58 57 56 56 54 48 45 55 80 95 76 67 76 62 38 19 10 9 10 15 22 23 17 11 7 8 10 1 338 320 303 329 357 339 324 336 352 349 339 335 333 330 330 330 330 324 314 310 310 307 300 297 294 270 222 209 199 187 174 164 161 161 159 156 153 153 153 151 144 142 151 178 225 242 246
95 77 49 43 56 62 57 56 57 57 57 56 55 57 57 56 51 44 45 45 29 31 89 81 42 22 15 8 9 29 39 33 29 33 34 28 21 4 342 340 349 2 353 348 353 1 360 352 347 346 343 340 337 335 332 329 322 316 316 317 315 311 300 234 209 202 190 183 178 171 164 160 156 154 151 146 142 140 143 158 188 215 232 243 248
105 102 70 55 57 60 57 56 56 55 50 50 55 56 51 50 52 49 49 41 20 12 33 32 16 22 26 16 17 45 45 34 33 37 37 31 21 9 357 1 15 17 7 6 10 8 1 357 355 351 346 343 339 336 335 333 325 319 321 329 334 333 325 239 198 190 180 174 169 165 161 159 158 158 152 145 145 150 169 207 228 230 234 246 256
54 75 76 64 64 72 70 64 63 63 57 49 53 57 51 48 49 51 55 46 24 12 22 17 7 22 23 12 16 40 39 31 34 33 27 23 22 19 16 17 16 14 14 16 15 9 3 3 359 350 346 344 341 338 338 335 330 330 331 333 334 329 310 250 191 178 171 163 158 157 158 158 158 154 144 141 152 171 199 232 243 237 232 252 267
29 44 59 54 54 70 80 71 61 59 60 59 60 57 53 52 50 53 61 55 35 24 29 24 19 21 12 3 8 23 23 22 31 28 20 20 22 21 21 19 15 15 18 17 15 13 9 6 0 354 351 350 345 343 343 339 336 339 339 334 328 316 289 221 177 165 158 153 150 153 159 161 158 149 141 146 177 206 214 223 234 228 216 236 253
68 78 79 65 55 56 62 68 70 64 60 67 70 64 57 55 54 51 52 50 39 33 34 33 29 25 18 10 10 12 13 21 30 24 18 20 21 20 22 23 20 20 19 15 16 18 15 9 7 4 3 1 356 353 353 351 348 345 343 337 329 313 244 176 162 156 152 150 152 153 152 150 146 140 147 178 214 222 220 232 252 244 232 246 259
123 110 87 67 64 65 61 61 66 62 53 53 65 66 58 51 52 52 50 46 44 39 38 41 39 30 20 18 16 7 2 17 31 29 24 24 25 25 28 28 25 24 24 20 18 19 16 14 11 9 8 9 7 4 2 360 357 353 350 354 10 55 144 151 152 151 150 151 151 144 141 143 149 161 192 227 233 219 209 233 247 241 244 269 285
153 130 94 61 69 77 69 61 63 61 51 41 46 61 65 57 53 55 54 48 47 46 43 45 47 38 25 22 23 15 10 25 37 39 36 36 37 37 38 37 35 35 35 32 27 24 22 20 17 16 15 13 12 12 13 13 13 18 30 55 79 102 129 145 149 141 128 128 133 135 136 150 171 183 206 257 292 261 229 241 247 247 247 254 265
179 170 158 137 82 59 46 52 72 69 55 44 41 45 61 68 66 64 62 53 50 51 50 49 51 43 32 31 38 42 43 47 50 51 50 48 46 45 45 45 44 43 43 43 39 35 33 34 32 29 27 23 20 19 20 21 24 31 40 56 99 125 138 150 152 130 112 113 119 122 117 121 128 121 14 1 5 328 289 270 273 279 273 266 274
199 203 207 203 135 85 51 48 62 51 39 48 56 44 48 67 71 67 66 61 54 54 53 51 49 40 31 35 45 52 53 54 55 56 55 50 47 48 48 47 45 45 45 46 44 39 37 40 40 37 33 31 30 29 29 28 30 34 39 50 102 135 137 138 133 112 100 106 114 107 99 98 86 50 16 7 354 320 305 302 294 287 288 294 301
219 218 211 205 184 135 98 65 63 54 47 83 105 67 52 66 65 57 63 68 61 56 55 52 49 44 39 41 49 54 55 55 54 55 55 51 48 49 50 46 44 45 45 49 55 54 47 42 42 41 39 36 35 36 37 38 39 42 48 58 84 114 122 119 111 98 90 92 95 89 82 75 59 41 20 2 343 316 305 316 311 294 302 322 333
225 227 214 208 202 169 143 135 80 56 4 228 183 71 52 68 69 59 60 68 64 61 61 55 51 50 49 49 54 59 61 61 59 56 55 53 52 52 51 49 49 50 50 52 56 59 57 54 51 49 47 46 43 41 40 39 43 52 65 74 82 91 98 101 102 101 97 93 83 67 52 50 50 22 330 320 315 294 298 321 318 296 306 325 337
223 227 222 219 218 210 203 205 187 183 305 298 344 33 25 54 74 70 63 65 69 72 71 65 60 58 53 50 53 60 65 66 64 59 55 54 55 56 54 52 51 55 59 58 56 55 57 58 57 55 54 56 56 51 45 41 43 53 67 76 82 86 88 86 81 76 76 79 69 43 23 29 45 284 287 294 296 294 309 320 313 306 319 323 314
223 220 225 227 224 223 225 224 214 224 259 287 309 319 340 26 90 104 102 104 108 99 84 77 73 72 66 55 51 57 64 68 68 64 58 56 55 53 53 53 50 49 54 58 58 56 56 58 59 57 55 54 55 54 50 48 48 51 54 58 64 72 81 81 72 58 43 40 35 9 334 311 303 295 267 273 301 310 317 306 293 296 309 313 311
223 219 226 229 230 232 230 223 220 229 238 247 252 252 264 270 232 180 155 151 149 134 109 107 102 90 88 85 69 60 58 59 60 58 56 55 51 43 42 48 51 48 47 51 55 57 57 57 59 60 55 50 47 46 44 42 41 41 41 42 42 42 39 36 36 36 40 35 15 351 328 319 326 335 354 2 328 327 333 333 326 318 302 296 302
232 229 230 229 235 245 243 231 227 231 226 219 222 227 228 234 239 229 200 184 181 171 149 139 139 130 125 121 117 107 84 59 51 44 35 41 43 37 32 40 52 57 54 52 54 55 55 54 54 56 55 51 47 43 38 35 31 27 25 26 27 25 16 3 350 331 311 344 9 353 333 320 325 327 323 314 316 317 320 328 331 326 315 310 309
237 235 237 237 239 246 246 238 237 238 231 226 228 225 213 216 235 237 221 203 197 187 172 160 158 163 165 155 137 125 114 86 69 50 18 25 42 42 33 33 43 50 51 50 49 47 47 48 46 43 40 38 36 31 24 18 15 10 5 1 1 358 351 349 351 336 306 315 39 7 335 321 328 323 302 292 292 285 284 300 315 313 309 309 307
240 239 243 245 246 249 249 243 241 240 235 234 238 234 219 216 227 226 210 206 208 198 181 176 182 182 178 176 168 148 128 80 14 28 45 49 53 44 31 33 42 48 52 54 50 43 41 40 37 32 25 17 11 8 4 2 3 3 355 346 341 336 326 316 320 332 344 84 74 39 2 352 4 346 307 292 288 290 299 308 311 307 307 308 304